Austin Straubel International, WI

11:14 AM CST on February 12, 2016 (GMT -0600)
Austin Straubel International | | Change Station
CLOSE
Current Station
Airport
Location: Green Bay,
Elevation: 686 ft
Nearby Weather Stations
Active Advisory: Wind Chill Advisory

Elev 686 ft 44.48 °N, 88.14 °W | Updated 21 minutes ago

Partly Cloudy
Partly Cloudy
14 °F
Feels Like -2 °F
N
17
Wind Variable Wind from NW

Today
High -- | Low -- °F
--% Chance of Precip.
Yesterday
High -- | Low -- °F
Precip. -- in
Pressure 30.16 in
Visibility 10.0 miles
Clouds Few 4000 ft
Windchill -2 °F
Dew Point 0 °F
Humidity 54%
Rainfall 0.00 in
Snow Depth Not available.
6:57 AM 5:16 PM
Waxing Crescent, 22% visible
METAR KGRB 121653Z 32015KT 10SM FEW040 M10/M18 A3011 RMK AO2 PK WND 30026/1627 SLP211 T11001178 $
Pressure 30.16 in
Visibility 10.0 miles
Clouds Few 4000 ft
Windchill -2 °F
Dew Point 0 °F
Humidity 54%
Rainfall 0.00 in
Snow Depth Not available.
6:57 AM 5:16 PM
Waxing Crescent, 22% visible
METAR KGRB 121653Z 32015KT 10SM FEW040 M10/M18 A3011 RMK AO2 PK WND 30026/1627 SLP211 T11001178 $

10-Day Weather Forecast

Almanac

Astronomy

Feb. 12, 2016 Rise Set
Actual Time
Civil Twilight
Nautical Twilight
Astronomical Twilight
Moon
Length of Visible Light
Length of Day
Tomorrow will be .
, % of the Moon is Illuminated

Today's Extremes

State Highs State Lows

Community

WunderPhotos

Upload Photos

1,892,353 photos uploaded!

WunderBlog® & News

Nearby

Air Quality

  Air Quality AQ Index Pollutant
Not available.

Snow Depth

Station Depth Elevation

Earthquake Activity

City Distance Mag. Time & Date
Minimum magnitude displayed is 2.5.

Coastal Water Temperatures

Place Temperature

Stations

Nearby Weather Stations

Station Location Temp. Windchill Dew Point Humidity Wind Precip. Elev Updated Type
                   

Watches & Warnings

Wind Chill Advisory
Issued: 3:11 AM CST Feb. 12, 2016 – National Weather Service

... Wind Chill Advisory in effect from midnight tonight to 9 am
CST Saturday...

The National Weather Service in Green Bay has issued a Wind Chill
Advisory... which is in effect from midnight tonight to 9 am CST
Saturday.

* Wind chills will drop to 20 to 25 below zero tonight and early
Saturday.

* The cold wind chills will cause frostbite on exposed skin in as
little as 20 to 30 minutes.

Precautionary/preparedness actions...

A Wind Chill Advisory means that cold air and the wind will
combine to generate low wind chills. Frost bite and hypothermia
can occur if precautions are not taken. Make sure you wear a hat
and gloves.

Tsk